Weather History for KSTP - November, 2011

Change the Weather History Date:

Tuesday, November 8, 2011

  Actual Average Record
Temperature  
Mean Temperature 40 °F -  
Max Temperature 46 °F 43 °F 78 °F (1999)
Min Temperature 33 °F 29 °F 15 °F (2003)
Degree Days  
Heating Degree Days 26    
Moisture  
Dew Point 25 °F    
Average Humidity 56    
Maximum Humidity 78    
Minimum Humidity 42    
Precipitation  
Precipitation 0.00 in - - ()
Sea Level Pressure  
Sea Level Pressure 30.20 in    
Wind  
Wind Speed 3 mph (NNE)    
Max Wind Speed 12 mph    
Max Gust Speed -    
Visibility 10 miles    
Events      
Averages and records for this station are not official NWS values.
T = Trace of Precipitation, MM = Missing Value Source: NWS Daily Summary

Daily Weather History Graph

Daily Weather History Graph

Search for Another Location

Airport or City:

Trip Planner

Search our weather history database for the weather conditions in past years. The results will help you decide how hot, cold, wet, or windy it might be!

Date:

Astronomy

Nov. 08, 2011 Rise Set
Actual Time 6:59 AM CST 4:51 PM CST
Civil Twilight 6:28 AM CST 5:22 PM CST
Nautical Twilight 5:53 AM CST 5:57 PM CST
Astronomical Twilight 5:19 AM CST 6:31 PM CST
Moon 3:33 PM CST (11/8) 4:56 AM CST (11/8)
Length of Visible Light 10h 53m
Length of Day
9h 51m
Waxing Gibbous, 96% of the Moon is Illuminated
Nov 8
Waxing Gibbous
Nov 10
Full
Nov 18
Last Quarter
Nov 25
New
Dec 2
First Quarter

Hourly Weather History & Observations

Time (CST) Temp. Windchill Dew Point Humidity Pressure Visibility Wind Dir Wind Speed Gust Speed Precip Events Conditions
12:53 AM 39.0 °F 36.8 °F 27.0 °F 62% 30.24 in 10.0 mi NNW 3.5 mph - N/A   Clear
1:53 AM 37.9 °F - 27.0 °F 65% 30.24 in 10.0 mi Calm Calm - N/A   Clear
2:53 AM 35.6 °F - 26.6 °F 70% 30.21 in 10.0 mi Calm Calm - N/A   Clear
3:53 AM 36.0 °F 33.3 °F 26.1 °F 67% 30.21 in 10.0 mi North 3.5 mph - N/A   Clear
4:53 AM 33.1 °F - 27.0 °F 78% 30.22 in 10.0 mi Calm Calm - N/A   Clear
5:53 AM 34.0 °F 31.0 °F 27.0 °F 75% 30.22 in 10.0 mi NW 3.5 mph - N/A   Partly Cloudy
6:53 AM 35.1 °F - 27.0 °F 72% 30.22 in 10.0 mi Calm Calm - N/A   Clear
7:53 AM 35.6 °F 32.8 °F 28.4 °F 75% 30.20 in 10.0 mi NW 3.5 mph - N/A   Clear
8:53 AM 39.0 °F - 28.0 °F 65% 30.22 in 10.0 mi Calm Calm - N/A   Clear
9:53 AM 42.1 °F 38.4 °F 26.1 °F 53% 30.23 in 10.0 mi ENE 5.8 mph - N/A   Clear
10:53 AM 43.0 °F 36.8 °F 25.0 °F 49% 30.23 in 10.0 mi ENE 11.5 mph - N/A   Clear
11:53 AM 44.1 °F 39.5 °F 25.0 °F 47% 30.22 in 10.0 mi ENE 8.1 mph - N/A   Mostly Cloudy
12:53 PM 44.1 °F 40.8 °F 25.0 °F 47% 30.20 in 10.0 mi ENE 5.8 mph - N/A   Mostly Cloudy
1:53 PM 45.0 °F 42.6 °F 25.0 °F 46% 30.17 in 10.0 mi ENE 4.6 mph - N/A   Scattered Clouds
2:53 PM 45.0 °F 42.6 °F 25.0 °F 46% 30.17 in 10.0 mi ENE 4.6 mph - N/A   Scattered Clouds
3:53 PM 46.0 °F 42.5 °F 24.1 °F 42% 30.17 in 10.0 mi North 6.9 mph - N/A   Clear
4:53 PM 45.0 °F 42.6 °F 23.0 °F 42% 30.18 in 10.0 mi North 4.6 mph - N/A   Clear
5:53 PM 44.1 °F 41.5 °F 23.0 °F 43% 30.18 in 10.0 mi North 4.6 mph - N/A   Clear
6:53 PM 42.1 °F 38.4 °F 24.1 °F 49% 30.18 in 10.0 mi North 5.8 mph - N/A   Clear
7:53 PM 43.0 °F 40.3 °F 24.1 °F 47% 30.17 in 10.0 mi North 4.6 mph - N/A   Clear
8:53 PM 42.1 °F 40.2 °F 25.0 °F 51% 30.18 in 10.0 mi NNE 3.5 mph - N/A   Clear
9:53 PM 42.1 °F - 25.0 °F 51% 30.18 in 10.0 mi Calm Calm - N/A   Mostly Cloudy
10:53 PM 42.8 °F 40.1 °F 23.0 °F 46% 30.16 in 10.0 mi NE 4.6 mph - N/A   Clear
11:53 PM 41.0 °F 39.0 °F 24.1 °F 51% 30.16 in 10.0 mi North 3.5 mph - N/A   Clear